Regional Weather Roundup
Issued by NWS

Home | Current Version | Previous Version | Text Only | Print | Product List | Glossary On
Versions: 1 2 3 4 5 6 7 8 9 10 11 12 13 14 15 16 17 18 19 20 21 22 23 24 25 26 27 28 29 30 31 32 33 34 35 36 37 38 39 40 41 42 43 44 45 46 47 48 49 50
000
ASUS45 KCYS 211010
RWRWY

WYOMING REGIONAL WEATHER ROUNDUP
NATIONAL WEATHER SERVICE CHEYENNE WY
400 AM MDT THU AUG 21 2014

NOTE:  "FAIR" INDICATES FEW OR NO CLOUDS BELOW 12,000 FEET
WITH NO SIGNIFICANT WEATHER AND/OR OBSTRUCTIONS TO VISIBILITY.

WYZ001-211100-
YELLOWSTONE NATIONAL PARK

CITY           SKY/WX    TMP DP  RH WIND       PRES   REMARKS
LK YELLOWSTONE   N/A     43  43 100 CALM      30.21R
W YELLOWSTONE  NOT AVBL

$$
WYZ002>013-054>058-071-098>099-211100-
NORTHERN WYOMING

CITY           SKY/WX    TMP DP  RH WIND       PRES   REMARKS
JACKSON        CLOUDY    50  48  93 S3        30.15R
CODY           CLOUDY    59  45  58 SW3       30.02R
GREYBULL       CLOUDY    60  53  77 CALM      29.96R
WORLAND        PTCLDY    53  47  79 S5        29.98R
SHERIDAN       PTCLDY    57  48  72 CALM      29.96R
BUFFALO        CLEAR     59  47  64 NW8       30.00R
GILLETTE       MOCLDY    58  55  90 W6        29.96R
HULETT         LGT RAIN  61  54  77 MISG      29.95
NEWCASTLE      FAIR      64  46  52 N5        29.95

$$
WYZ014>020-022>026-101>103-211100-
CENTRAL WYOMING

CITY           SKY/WX    TMP DP  RH WIND       PRES   REMARKS
BIG PINEY      MOCLDY    48  46  93 SE7       30.18F
PINEDALE       PTSUNNY   46  45  93 CALM      30.20F
DUBOIS         FAIR      50  41  71 N20       30.12S
LANDER         MOCLDY    57  48  72 E6        30.01S
RIVERTON       MOCLDY    57  40  52 NW8       30.02F
CASPER         PTCLDY    56  45  66 SW9       30.03R
DOUGLAS        CLOUDY    63  48  58 N3        30.01R

$$
WYZ021-027>030-104>119-211100-
SOUTHERN WYOMING

CITY           SKY/WX    TMP DP  RH WIND       PRES   REMARKS
EVANSTON       CLOUDY    51  47  86 S8        30.19S
KEMMERER       CLOUDY    50  46  87 W5        30.18S
FORT BRIDGER     N/A     52  49  90 S9        30.20F
ROCK SPRINGS   MOCLDY    49  44  83 S10       30.16F
DIXON          CLOUDY    50  48  92 CALM      30.23R
RAWLINS        PTCLDY    51  46  83 CALM      30.17R
SARATOGA       PTSUNNY   48  45  87 MISG      30.21R
LARAMIE        PTCLDY    52  42  69 SW12      30.16F
CHEYENNE       PTCLDY    59  43  55 W9        30.09R
TORRINGTON     CLEAR     59  49  69 CALM      29.95R
PINE BLUFFS    FAIR      57  46  67 NW3       30.03R

$$


USA.gov is the U.S. government's official web portal to all federal, state and local government web resources and services.